Tracking 31027 objects as of 19-Jul-2025
HD Live streaming from Space Station
objects crossing your sky now

STARLINK-32235

Track STARLINK-32235 now!
10-day predictions
STARLINK-32235 is classified as:


NORAD ID: 60739
Int'l Code: 2024-152V
Perigee: 481.6 km
Apogee: 483.2 km
Inclination: 53.2 °
Period: 94.1 minutes
Semi major axis: 6853 km
RCS: Unknown
Launch date: August 28, 2024
Source: United States (US)
Launch site: AIR FORCE EASTERN TEST RANGE (AFETR)
Your satellite tracking list
FLOCK 4X 28
Track 1 satellite(s)




NASA's NSSDC Master Catalog

Two Line Element Set (TLE):
1 60739U 24152V   25199.50570825 -.00000036  00000-0  10904-4 0  9995
2 60739  53.1594 276.3771 0001109  90.3151 269.7977 15.30186776 50946
Source of the keplerian elements: AFSPC